Wind_Speed
57 56 54 53 50 48 47 47 47 47 46 46 45 44 42 41 41 42 43 44 45 45 46 47 47 47 47 47 48 48 49 49 49 49 49 48 46 45 42 39 38 37
58 56 54 52 49 48 48 47 47 47 47 46 45 44 43 42 42 43 44 45 46 47 47 48 48 48 48 48 48 48 48 48 48 48 46 44 43 41 38 36 36 35
59 56 54 52 49 48 48 47 47 48 47 47 46 45 44 44 44 45 46 47 48 48 49 49 49 48 48 48 48 48 47 47 46 45 43 41 40 37 35 34 34 31
60 58 55 52 50 49 48 47 48 49 49 48 47 47 46 46 46 47 47 48 49 49 50 50 49 48 47 47 46 46 45 44 43 41 40 38 36 34 33 33 32 29
61 59 56 53 51 50 48 48 50 51 51 50 49 49 49 48 48 48 48 49 49 49 50 49 47 46 45 44 44 43 41 41 40 39 37 35 33 32 32 32 30 28
61 59 57 54 52 51 50 50 52 53 53 52 50 50 51 50 49 49 49 48 49 49 49 47 44 42 42 41 41 39 39 38 38 36 34 32 31 31 32 31 29 28
60 60 57 55 54 53 52 53 54 55 55 54 52 51 51 51 50 49 48 48 48 48 46 42 40 39 39 39 38 37 37 36 35 33 31 31 31 31 32 30 28 28
60 59 55 54 55 54 54 55 56 57 55 54 52 51 51 50 49 48 47 46 46 45 41 38 37 38 38 37 36 35 35 35 33 32 31 31 31 31 31 30 29 29
59 58 53 52 54 55 56 56 57 56 54 53 51 50 49 48 47 46 45 44 43 40 37 35 36 36 35 34 33 34 34 34 33 31 31 31 31 32 32 31 31 32
58 57 51 49 50 53 55 55 54 53 51 50 48 47 46 45 44 43 42 41 38 36 34 34 35 34 32 32 32 33 34 33 32 31 31 31 32 33 32 31 32 33
57 55 50 47 47 49 51 51 50 49 48 46 45 44 43 42 41 41 39 37 34 33 33 33 32 31 30 30 31 32 33 32 31 31 30 31 32 32 32 31 33 34
56 52 48 47 46 46 46 47 46 46 45 43 42 41 39 39 39 38 36 33 32 32 32 30 29 28 29 30 31 32 31 31 30 30 30 30 31 31 32 32 34 35
52 49 47 47 45 44 44 44 43 43 42 40 39 38 37 37 37 35 33 31 31 31 29 27 27 27 28 29 31 31 31 30 29 29 29 30 30 31 32 33 34 36
49 47 46 45 44 43 42 43 42 41 40 38 37 37 36 36 35 33 31 30 30 28 26 26 26 27 28 30 31 31 31 30 29 29 29 30 31 32 33 34 36 37
47 46 45 44 44 42 42 42 41 39 38 37 37 37 36 35 33 31 30 30 29 27 25 26 27 27 29 30 31 31 31 30 29 29 30 31 32 33 34 35 37 39
46 45 44 44 44 42 41 41 39 38 38 37 37 36 35 34 32 31 30 29 28 26 26 26 27 28 30 31 31 32 31 29 28 29 31 33 34 35 36 37 37 37
46 45 45 45 44 42 41 40 38 37 38 37 36 35 34 34 32 31 30 29 28 28 27 26 27 28 30 32 32 32 31 29 28 31 34 36 36 37 37 38 37 35
46 46 46 45 43 41 40 39 38 38 37 35 34 35 35 34 33 31 30 30 29 28 28 27 27 29 31 33 33 32 31 30 31 33 35 37 37 38 38 38 36 34
48 48 47 45 42 40 40 39 37 38 37 34 34 35 36 35 32 30 30 30 30 30 28 27 28 29 31 33 33 31 31 32 33 34 35 36 37 38 37 37 37 37
50 49 47 45 42 40 39 39 38 38 36 34 35 37 37 35 32 30 30 30 31 31 29 29 29 30 31 33 33 32 32 34 35 35 35 35 36 37 38 40 42 42
50 49 47 44 42 40 40 39 39 38 36 34 36 38 37 35 31 29 30 31 31 31 31 31 31 31 32 33 32 33 34 35 35 35 36 36 37 39 41 43 45 46
51 49 46 43 42 41 41 40 40 39 37 36 37 38 37 35 32 31 30 31 32 33 33 35 35 34 32 32 32 34 35 35 34 34 37 39 40 41 42 44 46 49
53 49 45 43 43 43 42 41 41 40 38 37 38 38 37 36 35 33 31 31 32 35 36 38 38 36 33 32 33 35 35 36 36 37 39 41 43 44 45 48 50 51
54 50 46 45 45 44 43 42 42 41 39 38 38 38 38 38 37 35 33 32 34 37 38 39 39 37 36 34 33 34 36 37 39 40 41 42 44 45 47 49 50 51
54 50 47 47 47 45 44 44 43 41 40 38 38 39 40 39 38 36 35 35 36 37 38 39 40 40 40 38 35 35 37 38 39 40 41 44 46 47 47 48 49 50
53 50 49 49 48 45 45 45 44 42 40 40 40 41 41 41 39 38 37 37 37 38 39 41 42 43 42 41 39 39 39 40 41 41 43 46 47 47 47 48 50 50
Wind_Direction
253 254 255 257 258 259 260 260 262 265 266 267 268 271 273 276 278 279 280 283 284 286 287 289 291 292 293 294 294 295 296 297 298 299 300 302 304 305 307 309 311 312
252 254 255 257 258 259 259 261 263 264 265 266 269 271 273 275 277 278 280 282 284 285 287 289 290 292 293 294 295 296 297 297 298 300 301 302 304 305 307 309 310 311
251 253 254 256 257 258 259 260 261 262 264 266 269 271 273 274 276 278 281 282 284 286 287 289 290 292 293 294 295 296 297 298 299 299 301 302 303 304 307 308 308 309
251 252 253 255 256 257 258 259 260 261 264 266 269 271 273 274 276 278 280 282 284 286 287 289 290 292 293 295 295 296 296 297 298 298 300 301 302 304 306 306 306 306
250 251 252 253 254 255 256 258 259 262 264 266 269 271 273 275 277 278 280 282 284 285 287 288 290 292 294 294 294 295 296 296 296 298 300 300 302 304 305 303 303 303
249 250 251 252 253 254 256 257 260 263 265 266 269 271 273 275 277 279 280 282 283 284 286 288 291 293 293 292 293 294 295 295 295 297 299 300 302 303 302 301 300 300
248 249 250 251 252 254 255 258 260 263 266 268 269 271 273 275 277 278 280 281 282 283 285 289 291 291 290 290 292 294 294 294 295 297 298 300 302 301 300 300 298 298
249 250 250 251 252 253 255 257 260 263 266 268 270 271 273 275 276 278 279 280 281 283 286 289 289 288 288 290 292 293 293 294 296 297 298 300 299 299 299 298 296 297
249 252 252 251 252 254 255 258 260 263 266 268 269 271 272 273 275 277 278 278 280 284 287 287 285 285 287 290 291 292 293 295 296 297 298 298 297 298 299 297 295 297
250 252 253 253 253 254 256 258 261 263 265 267 268 269 270 272 274 274 275 277 280 284 284 282 282 284 287 290 292 294 294 295 296 297 296 296 297 299 299 297 296 298
249 252 253 253 253 254 256 258 260 262 263 265 266 268 269 271 271 271 273 277 280 281 279 279 280 283 288 292 294 295 296 296 296 296 295 297 299 300 300 298 299 300
248 251 252 252 252 252 254 256 258 259 261 263 265 266 267 268 268 270 274 277 277 276 275 276 280 285 290 294 295 296 297 297 296 294 294 297 299 300 301 302 302 302
247 249 250 250 250 251 252 254 256 258 260 262 262 263 264 264 266 270 273 273 272 270 272 276 282 288 293 295 296 298 298 296 293 291 293 296 298 299 301 304 305 304
246 247 247 248 249 250 251 253 255 257 259 259 260 260 261 262 265 269 269 267 266 267 271 278 285 291 294 296 298 298 297 294 290 289 292 295 295 296 299 303 304 304
244 245 246 247 248 248 250 252 254 256 257 257 257 258 259 261 264 265 263 262 263 266 273 280 287 292 295 296 297 298 296 292 288 288 291 292 293 296 299 300 300 302
242 244 244 245 246 247 248 250 252 254 254 255 255 256 257 260 260 259 258 259 262 268 275 282 288 292 293 294 296 297 294 289 287 288 289 291 294 298 298 298 300 302
241 242 243 244 245 246 247 249 249 250 251 252 253 254 256 257 257 256 257 259 264 270 276 282 287 290 291 292 294 295 291 287 287 288 291 294 296 295 294 297 301 301
240 241 242 243 244 244 245 246 246 247 249 250 250 251 253 255 255 255 257 262 267 272 277 282 286 287 288 290 292 292 289 288 288 291 294 296 294 292 292 296 299 299
239 240 241 243 242 242 243 244 244 245 246 245 246 249 252 253 253 255 259 266 271 275 278 282 284 285 286 287 289 290 291 291 292 294 295 294 292 291 292 295 298 299
238 239 241 242 241 240 241 241 241 242 242 241 243 247 250 251 252 256 262 268 272 274 278 282 284 284 284 285 287 289 291 292 292 292 293 293 294 294 294 295 297 299
237 239 240 241 241 240 239 239 239 239 238 238 241 246 249 251 253 257 262 267 271 274 279 281 282 283 283 284 286 288 291 292 292 291 291 293 295 294 293 294 295 297
235 237 238 240 240 238 237 237 237 237 236 237 241 245 249 251 253 256 261 267 271 275 277 280 283 285 285 284 284 285 288 291 291 289 289 291 291 291 291 292 294 296
232 234 235 237 238 237 235 235 236 236 236 237 240 245 249 252 254 257 261 267 271 273 277 281 285 286 285 283 282 283 284 286 286 287 289 290 291 290 290 290 292 294
231 232 232 234 235 235 234 235 235 236 235 237 240 245 250 254 256 258 262 266 269 273 278 283 285 286 285 282 279 278 280 281 284 286 288 290 291 291 290 290 291 294
230 231 231 233 233 233 234 234 235 236 235 237 241 245 250 254 257 259 262 265 269 274 279 282 284 286 287 283 278 275 275 279 283 286 289 291 292 291 291 292 295 298
229 230 231 233 233 232 233 234 236 236 236 237 240 245 250 254 256 258 261 264 268 272 276 279 281 284 284 281 277 274 274 279 282 285 291 295 294 293 294 296 298 301
Height
10712 10715 10717 10720 10723 10725 10726 10727 10727 10728 10729 10728 10728 10730 10732 10732 10732 10732 10732 10731 10730 10729 10728 10727 10726 10725 10724 10722 10721 10719 10718 10716 10714 10712 10710 10708 10706 10704 10703 10701 10699 10697
10707 10710 10713 10715 10718 10720 10721 10722 10723 10723 10723 10723 10724 10726 10727 10727 10727 10727 10727 10726 10726 10725 10724 10723 10722 10721 10720 10718 10717 10715 10713 10711 10709 10708 10706 10704 10702 10700 10699 10697 10695 10694
10702 10705 10708 10711 10713 10715 10717 10717 10717 10717 10718 10719 10720 10721 10722 10722 10722 10723 10723 10722 10721 10719 10719 10718 10717 10716 10715 10714 10712 10711 10709 10707 10705 10703 10702 10700 10698 10697 10695 10694 10692 10690
10697 10700 10703 10706 10709 10710 10712 10712 10712 10712 10713 10714 10715 10717 10717 10717 10718 10718 10718 10717 10716 10714 10714 10713 10712 10712 10711 10709 10708 10706 10705 10703 10701 10699 10698 10696 10695 10693 10692 10690 10689 10687
10691 10694 10697 10701 10704 10705 10706 10707 10706 10708 10709 10710 10711 10712 10712 10713 10713 10713 10713 10712 10711 10710 10709 10708 10708 10707 10706 10704 10703 10702 10701 10699 10697 10696 10694 10692 10691 10690 10688 10687 10685 10684
10685 10688 10692 10696 10699 10700 10701 10702 10702 10703 10704 10705 10707 10707 10707 10708 10708 10708 10708 10707 10706 10705 10704 10704 10703 10702 10701 10699 10698 10698 10697 10695 10693 10692 10691 10689 10688 10686 10685 10684 10682 10680
10679 10682 10686 10690 10693 10695 10696 10697 10697 10698 10699 10701 10702 10702 10702 10702 10703 10703 10703 10702 10701 10700 10699 10699 10699 10697 10696 10695 10694 10693 10692 10691 10690 10688 10687 10686 10685 10683 10682 10681 10679 10677
10673 10676 10681 10685 10688 10689 10690 10691 10692 10693 10695 10696 10697 10697 10697 10697 10698 10698 10698 10697 10696 10695 10695 10695 10694 10693 10692 10691 10690 10689 10688 10687 10686 10685 10683 10682 10681 10680 10679 10677 10676 10674
10667 10671 10676 10680 10682 10683 10684 10686 10687 10689 10690 10691 10692 10693 10693 10693 10693 10693 10693 10692 10691 10691 10691 10690 10689 10688 10688 10687 10686 10685 10685 10683 10682 10681 10679 10678 10678 10677 10676 10674 10672 10671
10663 10665 10671 10674 10676 10678 10679 10680 10682 10684 10685 10686 10687 10687 10688 10688 10688 10688 10688 10687 10687 10687 10687 10686 10685 10684 10684 10683 10683 10682 10681 10679 10678 10677 10676 10675 10674 10673 10672 10671 10669 10667
10658 10661 10665 10669 10670 10672 10674 10675 10677 10679 10680 10681 10682 10683 10683 10684 10683 10683 10683 10683 10683 10683 10683 10682 10681 10681 10680 10680 10679 10678 10677 10676 10675 10673 10672 10672 10671 10670 10669 10667 10666 10664
10653 10657 10660 10662 10665 10667 10669 10670 10673 10674 10675 10676 10677 10678 10679 10679 10678 10678 10679 10679 10679 10679 10679 10678 10678 10677 10677 10676 10675 10674 10673 10672 10671 10670 10669 10669 10668 10667 10665 10664 10662 10660
10649 10652 10654 10657 10659 10662 10664 10666 10667 10669 10670 10672 10673 10674 10674 10674 10674 10674 10675 10676 10676 10675 10676 10675 10674 10674 10674 10673 10672 10671 10670 10669 10668 10667 10666 10665 10664 10663 10661 10660 10658 10656
10645 10647 10649 10652 10654 10657 10659 10660 10662 10663 10665 10667 10668 10669 10669 10669 10670 10671 10671 10672 10672 10672 10672 10671 10671 10671 10670 10669 10668 10667 10666 10665 10664 10663 10662 10661 10660 10658 10657 10656 10654 10651
10639 10642 10645 10647 10649 10652 10654 10655 10657 10659 10660 10662 10663 10664 10664 10665 10666 10667 10668 10668 10668 10669 10668 10668 10667 10667 10666 10665 10664 10663 10662 10661 10660 10659 10658 10657 10656 10654 10653 10651 10649 10647
10636 10639 10640 10642 10644 10647 10649 10651 10653 10655 10656 10657 10658 10659 10660 10661 10663 10664 10664 10665 10665 10665 10665 10664 10664 10664 10662 10661 10661 10659 10658 10657 10656 10655 10654 10653 10652 10651 10649 10646 10645 10643
10633 10634 10635 10637 10640 10643 10645 10646 10649 10650 10651 10653 10654 10655 10656 10657 10659 10660 10661 10661 10661 10661 10661 10661 10661 10660 10659 10657 10657 10656 10654 10654 10653 10652 10651 10650 10648 10646 10644 10642 10641 10639
10628 10629 10630 10633 10636 10639 10640 10642 10644 10646 10647 10648 10649 10650 10652 10654 10656 10657 10657 10657 10658 10658 10657 10657 10657 10656 10655 10653 10653 10652 10651 10650 10649 10648 10647 10646 10644 10641 10640 10639 10637 10635
10623 10623 10626 10629 10632 10634 10636 10638 10640 10641 10642 10644 10645 10646 10648 10650 10651 10652 10653 10654 10654 10654 10653 10653 10653 10652 10651 10649 10649 10648 10648 10647 10646 10645 10643 10641 10639 10638 10636 10635 10633 10631
10617 10619 10622 10624 10627 10630 10632 10633 10635 10636 10638 10639 10640 10641 10643 10645 10647 10648 10649 10649 10649 10649 10649 10649 10648 10647 10647 10645 10645 10645 10644 10643 10642 10640 10639 10638 10636 10634 10633 10631 10629 10627
10612 10615 10618 10620 10623 10626 10627 10628 10630 10632 10633 10635 10636 10637 10639 10641 10643 10644 10644 10644 10644 10644 10644 10644 10643 10643 10642 10641 10641 10641 10640 10639 10638 10636 10635 10634 10633 10631 10629 10627 10625 10623
10607 10610 10613 10616 10619 10621 10622 10624 10626 10627 10628 10630 10631 10633 10635 10637 10638 10639 10639 10640 10640 10640 10639 10638 10638 10638 10638 10637 10637 10636 10635 10635 10634 10633 10632 10630 10629 10628 10626 10623 10621 10619
10601 10605 10609 10612 10613 10615 10617 10619 10621 10622 10624 10626 10627 10629 10631 10632 10633 10634 10635 10636 10635 10635 10634 10634 10633 10633 10633 10632 10632 10631 10631 10630 10629 10628 10627 10626 10625 10623 10621 10619 10617 10615
10595 10600 10604 10606 10608 10610 10612 10614 10616 10618 10620 10621 10623 10625 10626 10627 10628 10630 10631 10631 10630 10629 10629 10629 10629 10629 10628 10627 10627 10626 10625 10625 10624 10623 10622 10621 10620 10618 10617 10615 10613 10612
10592 10596 10599 10601 10603 10605 10607 10609 10611 10613 10616 10618 10619 10620 10621 10622 10624 10625 10626 10626 10625 10625 10625 10624 10624 10624 10623 10622 10622 10621 10620 10619 10619 10618 10617 10616 10614 10613 10612 10611 10609 10607
10589 10592 10594 10595 10597 10600 10603 10604 10606 10609 10612 10613 10614 10615 10616 10617 10619 10620 10620 10620 10620 10620 10620 10619 10619 10619 10618 10617 10616 10615 10614 10614 10613 10612 10612 10610 10609 10608 10607 10606 10605 10603